| time (UTC) | temp F | wind direction | speed MPH | gust MPH | rain 1hr in | rain 24hr in | rain mn in | humidity % | barometer mb |
| 20260904073135 | 54 | 121 | 0.0 | 0.0 | 0.00 | 0.00 | 0.00 | 46 | 1001.6 |
| 20260904071602 | 56 | 121 | 0.0 | 0.0 | 0.00 | 0.00 | 0.00 | 42 | 1001.5 |
| 20260904070131 | 57 | 121 | 0.0 | 0.0 | 0.00 | 0.00 | 0.00 | 41 | 1001.4 |
| 20260904064507 | 58 | 121 | 0.0 | 0.0 | 0.00 | 0.00 | 0.00 | 39 | 1001.4 |
| 20260904063022 | 57 | 121 | 0.0 | 0.0 | 0.00 | 0.00 | 0.00 | 41 | 1001.2 |
| 20260904061522 | 57 | 121 | 0.0 | 0.0 | 0.00 | 0.00 | 0.00 | 42 | 1001.2 |
| 20260904060028 | 57 | 173 | 0.0 | 0.0 | 0.00 | 0.00 | 0.00 | 44 | 1001.2 |
| 20260904054537 | 58 | 216 | 0.0 | 0.0 | 0.00 | 0.00 | 0.00 | 43 | 1001.2 |
| 20260904053043 | 59 | 216 | 0.0 | 0.0 | 0.00 | 0.00 | 0.00 | 44 | 1001.2 |
| 20260904051527 | 60 | 216 | 0.0 | 0.0 | 0.00 | 0.00 | 0.00 | 44 | 1001.3 |
| 20260904050047 | 62 | 261 | 0.0 | 0.0 | 0.00 | 0.00 | 0.00 | 40 | 1001.4 |
| 20260904044555 | 63 | 146 | 0.0 | 1.0 | 0.00 | 0.00 | 0.00 | 41 | 1001.3 |
| 20260904043109 | 63 | 150 | 0.0 | 8.0 | 0.00 | 0.00 | 0.00 | 39 | 1001.5 |
| 20260904041615 | 62 | 131 | 0.0 | 2.0 | 0.00 | 0.00 | 0.00 | 37 | 1001.6 |
| 20260904040014 | 64 | 137 | 0.0 | 7.0 | 0.00 | 0.00 | 0.00 | 33 | 1001.8 |
| 20260904034538 | 64 | 126 | 0.0 | 14.0 | 0.00 | 0.00 | 0.00 | 32 | 1001.8 |
| 20260904033043 | 64 | 123 | 0.0 | 12.0 | 0.00 | 0.00 | 0.00 | 32 | 1001.7 |
| 20260904031544 | 64 | 129 | 0.0 | 9.0 | 0.00 | 0.00 | 0.00 | 31 | 1001.6 |
| 20260904030002 | 65 | 150 | 0.0 | 1.0 | 0.00 | 0.00 | 0.00 | 30 | 1001.5 |
| 20260904024517 | 65 | 136 | 0.0 | 10.0 | 0.00 | 0.00 | 0.00 | 30 | 1001.4 |
| 20260904023059 | 65 | 137 | 0.0 | 12.0 | 0.00 | 0.00 | 0.00 | 30 | 1001.3 |
| 20260904021610 | 64 | 150 | 0.0 | 9.0 | 0.00 | 0.00 | 0.00 | 31 | 1001.0 |
| 20260904020120 | 65 | 134 | 0.0 | 1.0 | 0.00 | 0.00 | 0.00 | 30 | 1001.0 |
| 20260904014631 | 66 | 140 | 0.0 | 0.0 | 0.00 | 0.00 | 0.00 | 28 | 1000.8 |
| 20260904013134 | 66 | 132 | 0.0 | 0.0 | 0.00 | 0.00 | 0.00 | 27 | 1000.8 |
| 20260904011612 | 67 | 144 | 0.0 | 0.0 | 0.00 | 0.00 | 0.00 | 28 | 1000.8 |
| 20260904010138 | 68 | 144 | 0.0 | 7.0 | 0.00 | 0.00 | 0.00 | 26 | 1000.8 |
| 20260904004610 | 69 | 149 | 0.0 | 1.0 | 0.00 | 0.00 | 0.00 | 25 | 1000.6 |
| 20260904003108 | 70 | 128 | 0.0 | 11.0 | 0.00 | 0.00 | 0.00 | 25 | 1000.7 |
| 20260904001608 | 70 | 173 | 0.0 | 8.0 | 0.00 | 0.00 | 0.00 | 25 | 1000.8 |
| 20260904000104 | 70 | 177 | 1.0 | 9.0 | 0.00 | 0.00 | 0.00 | 24 | 1000.8 |
| 20260903234552 | 71 | 156 | 0.0 | 0.0 | 0.00 | 0.00 | 0.00 | 24 | 1000.9 |
| 20260903233054 | 72 | 196 | 0.0 | 0.0 | 0.00 | 0.00 | 0.00 | 24 | 1000.9 |
| 20260903231558 | 73 | 165 | 1.0 | 8.0 | 0.00 | 0.00 | 0.00 | 22 | 1000.8 |
| 20260903230114 | 73 | 268 | 0.0 | 7.0 | 0.00 | 0.00 | 0.00 | 22 | 1000.9 |
| 20260903224612 | 72 | 169 | 0.0 | 0.0 | 0.00 | 0.00 | 0.00 | 23 | 1000.9 |
| 20260903223049 | 72 | 250 | 0.0 | 6.0 | 0.00 | 0.00 | 0.00 | 26 | 1001.1 |
| 20260903221541 | 72 | 125 | 0.0 | 6.0 | 0.00 | 0.00 | 0.00 | 26 | 1001.2 |
| 20260903220030 | 73 | 138 | 0.0 | 2.0 | 0.00 | 0.00 | 0.00 | 26 | 1001.2 |
| 20260903214603 | 73 | 248 | 0.0 | 1.0 | 0.00 | 0.00 | 0.00 | 25 | 1001.1 |
| 20260903213042 | 75 | 184 | 0.0 | 1.0 | 0.00 | 0.00 | 0.00 | 24 | 1001.3 |
| 20260903211519 | 74 | 211 | 0.0 | 1.0 | 0.00 | 0.00 | 0.00 | 26 | 1001.4 |
| 20260903210123 | 73 | 228 | 0.0 | 2.0 | 0.00 | 0.00 | 0.00 | 25 | 1001.5 |
| 20260903204550 | 73 | 245 | 0.0 | 0.0 | 0.00 | 0.00 | 0.00 | 27 | 1001.6 |
| 20260903203106 | 73 | 194 | 0.0 | 7.0 | 0.00 | 0.00 | 0.00 | 28 | 1001.7 |
| 20260903201516 | 73 | 162 | 0.0 | 1.0 | 0.00 | 0.00 | 0.00 | 24 | 1002.0 |
| 20260903200010 | 73 | 231 | 0.0 | 9.0 | 0.00 | 0.00 | 0.00 | 23 | 1002.0 |
| 20260903194502 | 73 | 331 | 0.0 | 8.0 | 0.00 | 0.00 | 0.00 | 24 | 1002.1 |
| 20260903193145 | 73 | 308 | 0.0 | 0.0 | 0.00 | 0.00 | 0.00 | 22 | 1002.2 |
| 20260903191519 | 71 | 202 | 0.0 | 2.0 | 0.00 | 0.00 | 0.00 | 24 | 1002.6 |
| 20260903190036 | 70 | 274 | 1.0 | 15.0 | 0.00 | 0.00 | 0.00 | 22 | 1002.7 |
| 20260903184510 | 71 | 305 | 0.0 | 11.0 | 0.00 | 0.00 | 0.00 | 19 | 1002.8 |
| 20260903183111 | 71 | 261 | 0.0 | 3.0 | 0.00 | 0.00 | 0.00 | 24 | 1003.0 |
| 20260903181606 | 71 | 212 | 0.0 | 2.0 | 0.00 | 0.00 | 0.00 | 25 | 1003.3 |
| 20260903180055 | 69 | 247 | 0.0 | 6.0 | 0.00 | 0.00 | 0.00 | 27 | 1003.6 |
| 20260903174554 | 68 | 275 | 0.0 | 8.0 | 0.00 | 0.00 | 0.00 | 29 | 1003.6 |
| 20260903173042 | 68 | 265 | 0.0 | 11.0 | 0.00 | 0.00 | 0.00 | 30 | 1003.6 |
| 20260903171521 | 68 | 243 | 0.0 | 11.0 | 0.00 | 0.00 | 0.00 | 31 | 1003.6 |
| 20260903170016 | 67 | 273 | 0.0 | 0.0 | 0.00 | 0.00 | 0.00 | 34 | 1003.6 |
| 20260903164503 | 65 | 248 | 0.0 | 8.0 | 0.00 | 0.00 | 0.00 | 37 | 1003.6 |
| 20260903163103 | 64 | 252 | 0.0 | 12.0 | 0.00 | 0.00 | 0.00 | 39 | 1003.5 |
| 20260903161603 | 64 | 230 | 0.0 | 3.0 | 0.00 | 0.00 | 0.00 | 38 | 1003.1 |
| 20260903160131 | 64 | 282 | 0.0 | 0.0 | 0.00 | 0.00 | 0.00 | 39 | 1003.1 |
| 20260903154512 | 63 | 171 | 0.0 | 4.0 | 0.00 | 0.00 | 0.00 | 43 | 1003.1 |
| 20260903153014 | 63 | 143 | 0.0 | 1.0 | 0.00 | 0.00 | 0.00 | 43 | 1003.4 |
| 20260903151521 | 62 | 113 | 0.0 | 0.0 | 0.00 | 0.00 | 0.00 | 44 | 1003.4 |
| 20260903150041 | 61 | 170 | 0.0 | 0.0 | 0.00 | 0.00 | 0.00 | 46 | 1003.6 |
| 20260903144554 | 60 | 155 | 0.0 | 0.0 | 0.00 | 0.00 | 0.00 | 46 | 1003.7 |
| 20260903143110 | 59 | 163 | 0.0 | 3.0 | 0.00 | 0.00 | 0.00 | 47 | 1003.8 |
| 20260903141614 | 58 | 149 | 0.0 | 0.0 | 0.00 | 0.00 | 0.00 | 50 | 1003.7 |
| 20260903140109 | 56 | 144 | 0.0 | 2.0 | 0.00 | 0.00 | 0.00 | 53 | 1003.6 |
| 20260903134559 | 54 | 142 | 0.0 | 0.0 | 0.00 | 0.00 | 0.00 | 55 | 1003.7 |
| 20260903133034 | 52 | 172 | 0.0 | 0.0 | 0.00 | 0.00 | 0.00 | 58 | 1003.4 |
| 20260903131553 | 51 | 172 | 0.0 | 0.0 | 0.00 | 0.00 | 0.00 | 58 | 1003.3 |
| 20260903130058 | 51 | 172 | 0.0 | 1.0 | 0.00 | 0.00 | 0.00 | 59 | 1003.1 |
| 20260903124546 | 51 | 257 | 0.0 | 0.0 | 0.00 | 0.00 | 0.00 | 58 | 1003.0 |
| 20260903123051 | 52 | 260 | 0.0 | 0.0 | 0.00 | 0.00 | 0.00 | 55 | 1003.1 |
| 20260903121551 | 52 | 260 | 0.0 | 0.0 | 0.00 | 0.00 | 0.00 | 55 | 1003.0 |
| 20260903120009 | 52 | 146 | 0.0 | 0.0 | 0.00 | 0.00 | 0.00 | 55 | 1003.0 |
| 20260903114513 | 52 | 146 | 0.0 | 0.0 | 0.00 | 0.00 | 0.00 | 56 | 1003.0 |
| 20260903113040 | 51 | 214 | 0.0 | 0.0 | 0.00 | 0.00 | 0.00 | 55 | 1003.0 |
| 20260903111554 | 52 | 214 | 0.0 | 0.0 | 0.00 | 0.00 | 0.00 | 53 | 1003.0 |
| 20260903110009 | 53 | 254 | 0.0 | 0.0 | 0.00 | 0.00 | 0.00 | 50 | 1003.0 |
| 20260903104521 | 54 | 254 | 0.0 | 0.0 | 0.00 | 0.00 | 0.00 | 49 | 1002.9 |
| 20260903103057 | 54 | 207 | 0.0 | 7.0 | 0.00 | 0.00 | 0.00 | 50 | 1003.0 |
| 20260903101612 | 51 | 161 | 0.0 | 0.0 | 0.00 | 0.00 | 0.00 | 53 | 1002.7 |
| 20260903100036 | 50 | 155 | 0.0 | 0.0 | 0.00 | 0.00 | 0.00 | 57 | 1002.9 |
| 20260903094544 | 50 | 156 | 0.0 | 0.0 | 0.00 | 0.00 | 0.00 | 60 | 1002.8 |
| 20260903093040 | 51 | 155 | 0.0 | 0.0 | 0.00 | 0.00 | 0.00 | 59 | 1002.9 |
| 20260903091542 | 51 | 156 | 0.0 | 0.0 | 0.00 | 0.00 | 0.00 | 58 | 1002.8 |
| 20260903090056 | 52 | 155 | 0.0 | 0.0 | 0.00 | 0.00 | 0.00 | 58 | 1003.0 |
| 20260903084600 | 52 | 155 | 0.0 | 0.0 | 0.00 | 0.00 | 0.00 | 56 | 1003.1 |
| 20260903083111 | 53 | 155 | 0.0 | 0.0 | 0.00 | 0.00 | 0.00 | 55 | 1003.0 |
| 20260903081611 | 54 | 155 | 0.0 | 0.0 | 0.00 | 0.00 | 0.00 | 54 | 1003.2 |
| 20260903080007 | 54 | 111 | 0.0 | 0.0 | 0.00 | 0.00 | 0.00 | 53 | 1003.3 |
| 20260903074529 | 55 | 273 | 0.0 | 0.0 | 0.00 | 0.00 | 0.00 | 52 | 1003.5 |